UNISAT 6

导读

UNISAT-6是意大利GAUSS团队研制的多功能微型卫星,于2014年6月19日发射入轨,运行在约600×700公里的近地轨道。卫星重量仅26千克,设计低功耗,具备多任务承载能力,作为大学卫星项目,验证了小卫星多功能设计理念,为后续微纳卫星技术积累了实践经验,目前已长期稳定在轨运行超过十年。

基本信息
目录编号:
40012
目录名称:
UNISAT 6
国际标识:
2014-033C
轨道中心:
EARTH
卫星名称:
UNISAT 6
卫星全名:
--
卫星状态:
在轨 (已飞行4467 天)
发射日期:
2014-06-19 UTC
国别 :
意大利 (IT)
星等 :
--
轨道信息
数据来源 国际轨道数据
星历时间: 2026-09-10T17:02:11+0800
21小时前
查看轨道信息
半长轴: 6980.431km
偏心率: 0.0045468
轨道倾角: 97.799°
近地点辐角 146.153°
升交点赤经 44.668°
平近点角 214.260°
近地点: 570.555km
远地点: 634.033km
周期: 96.735分钟
每日圈数: 14.88605
详细信息
使用方式:
暂无
2D轨道图
3D轨道图
轨道高度分析图
轨道倾角分析图
轨道综合分析图
查看轨道综合分析图
交会数据列表
事件ID 空间交会对象 最接近时刻(TCA) 交会距离 交会风险概率(CRP) 交会风险指数(CRI) 操作
CDM_260912-190304-001206-886724
UNISAT 6 (40012)
2026-09-12T
19:03:10+0000
2.047 km
极远距离
2.66412E-6 低风险 0.44
与全量物体交会距离演化趋势
与全量物体交会风险概率演化趋势